Regional Weather Roundup
Issued by NWS

Home | Current Version | Previous Version | Text Only | Print | Product List | Glossary Off
Versions: 1 2 3 4 5 6 7 8 9 10 11 12 13 14 15 16 17 18 19 20 21 22 23 24 25 26 27 28 29 30 31 32 33 34 35 36 37 38 39 40 41 42 43 44 45 46 47 48 49 50

556
ASUS43 KFSD 211802
RWRSD

WEATHER ROUNDUP FOR SOUTH DAKOTA
NATIONAL WEATHER SERVICE SIOUX FALLS SD
100 PM CDT MON AUG 21 2017

NOTE: "FAIR" INDICATES FEW OR NO CLOUDS BELOW 12,000 FEET WITH NO
SIGNIFICANT WEATHER AND/OR OBSTRUCTIONS TO VISIBILITY.


SDZ001>005-009-010-012>017-211900-
NORTHWEST AND NORTH CENTRAL SOUTH DAKOTA

CITY           SKY/WX    TMP DP  RH WIND       PRES   REMARKS
BUFFALO          N/A     72  37  28 N18G25    30.04R
FAITH            N/A     69  61  75 W7        30.05F
MOBRIDGE       CLOUDY    69  62  78 W9        29.96F
$$

SDZ012>016-024>037-041>051-057-063-072>074-211900-
SOUTHWEST AND SOUTH CENTRAL SOUTH DAKOTA

CITY           SKY/WX    TMP DP  RH WIND       PRES   REMARKS
RAPID CTY ARPT SUNNY     69  49  48 N16       30.10R
PIERRE         CLOUDY    63  61  93 NW8       29.96F
CUSTER         SUNNY     65  41  41 NE13G18   30.21R
ELLSWORTH AFB  SUNNY     70  49  46 N14       30.10R
PHILIP         CLOUDY    72  63  73 NW13      30.00F
PINE RIDGE     MOSUNNY   70  60  70 N10       30.07R
SPEARFISH      FAIR      66  43  42 W5        30.17R
WINNER         FAIR      65  62  90 SW8       29.95R
$$

SDZ004>011-016>023-039-040-211900-
NORTHEAST SOUTH DAKOTA

CITY           SKY/WX    TMP DP  RH WIND       PRES   REMARKS
ABERDEEN       CLOUDY    62  59  90 CALM      29.94F
WATERTOWN      CLOUDY    65  64  97 CALM      29.91F
BROOKINGS      CLOUDY    67  65  93 W8        29.98F
SISSETON         N/A     65  62  90 S6        29.91R
$$

SDZ017-020-022-023-036>040-048>070-211900-
SOUTHEAST SOUTH DAKOTA

CITY           SKY/WX    TMP DP  RH WIND       PRES   REMARKS
SIOUX FALLS    TSTM      69  69 100 NE9       29.93F
HURON          CLOUDY    67  63  87 SE24G35   29.80F
CHAMBERLAIN    CLOUDY    68  67  94 SW9G20    29.94R
MITCHELL       TSTM      68  65  90 VRB7      30.00S
YANKTON        CLOUDY    77  69  76 SE7       29.89F
$$

ABBREVIATIONS USED IN REMARKS
   TC - TEMPERATURE IN CELSIUS
  WCI - WIND CHILL INDEX
   HX - HEAT INDEX
  VSB - VISIBILITY





USA.gov is the U.S. government's official web portal to all federal, state and local government web resources and services.